星链-34436 (STARLINK-34436)

导读

STARLINK-34436是美国SpaceX星链星座项目中的卫星,于2025年6月13日发射升空。作为星链低轨互联网星座的一员,它承担着为全球提供高速宽带互联网接入服务的任务,依托低轨部署优势,可降低信号延迟,补充地面网络覆盖盲区,进一步扩充美国星链星座的服务容量与覆盖范围。

Basic Information
目录编号:
64358
目录名称:
STARLINK-34436
国际标识:
2025-126Q
轨道中心:
EARTH
卫星名称:
星链-34436
卫星全名:
星链-34436 (STARLINK-34436)
卫星状态:
在轨 (已飞行448 天)
发射日期:
2025-06-13 UTC
国别 :
美国 (US)
星等 :
--
Orbit Information
数据来源 国际轨道数据
星历时间: 2026-09-04T12:00:02+0800
5小时前
查看轨道信息
半长轴: 6887.719km
偏心率: 0.0003988
轨道倾角: 70.001°
近地点辐角 305.973°
升交点赤经 304.147°
平近点角 73.077°
近地点: 506.835km
远地点: 512.329km
周期: 94.814分钟
每日圈数: 15.187619
Detailed Information
固有亮度:
5
最大亮度:
2.5
卫星平台:
Starlink V1.0
覆盖范围:
全球
运营商:
太空探索技术公司
运营商所在国:
美国
制造商(研发单位):
太空探索技术公司
制造商所在国:
美国
使用方式:
暂无
Satellite Introduction
Starlink 计划是 SpaceX 推出的全球卫星互联网项目,通过发射低轨道卫星,为全球尤其是偏远地区提供高速、低延迟的互联网服务。自 2019 年起,Starlink 已部署数千颗卫星,旨在缩小全球数字鸿沟,推动互联网普及。该项目还为军事、航空等行业提供通信支持,带来广泛经济效益。
2D Orbit Map
3D Orbit Map
Orbit Altitude Analysis Chart
Orbit Inclination Analysis Chart
Orbit Comprehensive Analysis Chart
View Comprehensive Chart
Conjunction Data List
Event ID Objects TCA Miss Dist (km) Collision Risk Probability Collision Risk Index (CRI) Action
CDM_260906-005605-896606-435821
2026-09-06T
00:56:51+0000
1.101 km
极远距离
1.655437E-5 中风险 0.59
CDM_260905-184205-893206-435821
2026-09-05T
18:42:28+0000
1.821 km
极远距离
3.03322E-6 低风险 0.45
CDM_260906-001105-893206-435821
2026-09-06T
00:11:23+0000
2.192 km
极远距离
1.910624E-6 低风险 0.41
CDM_260905-094305-713406-435821
2026-09-05T
09:43:05+0000
2.695 km
极远距离
7.962849E-7 极低风险 0.33